Location: Seasalter
(51.3333°N, 1.0167°E)
Time: 04:29:35
(UTC+00:00)

Meteor 1-20 Rocket - Pass Details

Date: 26 September 2023
Orbit: 818 x 892 km, 81.2° (Epoch: 29 November)

Event Time Altitude Azimuth Distance (km) Brightness Sun altitude
Rises 03:15:38 0° 344° (NNW) 3,509 7.6 -23.5°
Reaches altitude 10° 03:18:09 10° 340° (NNW) 2,559 6.8 -23.2°
Maximum altitude 03:23:46 52° 265° (W) 1,081 4.4 -22.4°
Enters shadow 03:24:35 48° 237° (WSW) 1,130 4.4 -22.3°
